{"data":{"norad_id":56400,"epoch":"2026-09-19T22:34:10.115040Z","epoch_age_seconds":160343,"freshness":"FRESH","line1":"1 56400U 23061AC  26262.94039485 -.00000490  00000+0 -82898-5 0  9991","line2":"2 56400  43.0032 169.9411 0001616 267.6209  92.4458 15.27574569186587","mean_motion":15.27574569,"eccentricity":0.0001616,"inclination_deg":43.0032,"raan_deg":169.9411,"arg_perigee_deg":267.6209,"mean_anomaly_deg":92.4458,"bstar":-8.2898e-6,"rev_number":18658,"period_min":94.267083861096,"perigee_km":481.9565881545,"apogee_km":484.17412875675,"semimajor_km":6861.2023584556,"source":"CELESTRAK","updated_at":"2026-09-21T09:00:33.435258Z"}}